GW0823 Weather Reports


time (UTC)temp
F
wind
direction
speed
knots
gust
knots
rain 1hr
in
rain 24hr
in
rain mn
in
humidity
%
barometer
mb
20260906123105 69 0 0.0 1.7 0.00 0.19 0.00 94 1015.4
20260906121604 68 0 0.0 2.6 0.00 0.19 0.00 94 1015.3
20260906120106 68 0 0.0 2.6 0.00 0.19 0.00 94 1015.0
20260906114606 68 336 0.0 2.6 0.00 0.19 0.00 95 1014.8
20260906113106 68 0 0.0 2.6 0.00 0.19 0.00 94 1014.7
20260906111600 68 271 0.0 2.6 0.00 0.19 0.00 95 1014.3
20260906110104 68 224 0.0 1.7 0.00 0.19 0.00 95 1014.2
20260906104628 68 0 0.9 2.6 0.00 0.19 0.00 96 1014.0
20260906103115 68 333 0.9 2.6 0.00 0.19 0.00 96 1013.9
20260906101603 68 0 0.0 2.6 0.00 0.19 0.00 96 1013.8
20260906094643 69 0 0.0 0.0 0.00 0.19 0.00 97 1013.8
20260906093111 69 0 0.0 0.0 0.00 0.19 0.00 97 1013.7
20260906091617 69 0 0.0 2.6 0.00 0.19 0.00 97 1013.9
20260906090105 69 286 0.9 1.7 0.00 0.19 0.00 97 1013.8
20260906084607 69 0 0.0 0.0 0.00 0.19 0.00 97 1013.8
20260906083105 69 0 0.0 0.0 0.00 0.19 0.00 97 1013.6
20260906081603 69 0 0.0 0.0 0.00 0.19 0.00 97 1013.7
20260906080104 69 0 0.0 1.7 0.00 0.19 0.00 97 1013.6
20260906074604 69 0 0.0 2.6 0.00 0.19 0.00 97 1013.6
20260906073103 69 0 0.0 2.6 0.00 0.19 0.00 97 1013.4
20260906071601 69 0 0.0 0.0 0.00 0.19 0.00 97 1013.5
20260906070104 69 0 0.0 0.0 0.00 0.19 0.00 97 1013.6
20260906064605 69 0 0.0 0.0 0.00 0.19 0.00 97 1013.7
20260906063103 69 0 0.0 0.0 0.00 0.19 0.00 97 1013.8
20260906061606 69 0 0.0 0.0 0.00 0.19 0.00 96 1013.7
20260906060111 69 0 0.0 0.0 0.00 0.19 0.00 96 1013.7
20260906054558 69 0 0.0 0.0 0.00 0.19 0.00 96 1013.6
20260906053109 69 0 0.0 0.0 0.00 0.19 0.00 96 1013.6
20260906051605 68 0 0.0 0.0 0.00 0.19 0.00 96 1013.5
20260906050133 68 0 0.0 0.0 0.00 0.19 0.00 95 1013.6
20260906044606 69 0 0.0 0.0 0.00 0.19 0.00 95 1013.6
20260906043102 69 0 0.0 0.0 0.00 0.19 0.00 95 1013.7
20260906041605 69 0 0.0 0.0 0.00 0.19 0.00 95 1013.7
20260906040138 69 0 0.0 0.0 0.00 0.19 0.00 95 1013.9
20260906034609 70 0 0.0 0.0 0.00 0.19 0.19 94 1014.1
20260906033104 70 0 0.0 0.0 0.00 0.19 0.19 94 1014.2
20260906031605 70 0 0.0 0.0 0.00 0.19 0.19 94 1014.4
20260906030111 70 0 0.0 0.0 0.01 0.19 0.19 93 1014.3
20260906024608 70 0 0.0 0.9 0.01 0.19 0.19 93 1014.4
20260906023104 70 0 0.9 2.6 0.01 0.19 0.19 92 1014.4
20260906021609 71 267 2.6 6.1 0.01 0.19 0.19 91 1014.3
20260906020107 71 323 2.6 6.1 0.00 0.18 0.18 93 1014.1
20260906014603 70 281 2.6 6.1 0.00 0.18 0.18 94 1014.0
20260906013108 70 0 0.0 2.6 0.00 0.18 0.18 94 1013.6
20260906011607 70 0 0.0 2.6 0.00 0.18 0.18 94 1013.6
20260906010110 71 0 0.0 3.5 0.00 0.18 0.18 93 1013.5
20260906004606 71 103 0.9 2.6 0.00 0.18 0.18 93 1013.1
20260906003103 71 103 0.9 1.7 0.00 0.18 0.18 91 1013.0
20260906001621 72 0 0.0 0.0 0.00 0.18 0.18 91 1013.2
20260906000108 72 103 1.7 3.5 0.00 0.18 0.18 89 1012.8
20260905234602 73 101 0.9 2.6 0.00 0.18 0.18 87 1013.0
20260905233113 74 101 1.7 2.6 0.00 0.18 0.18 85 1013.0
20260905231607 77 98 1.7 2.6 0.00 0.18 0.18 81 1013.1
20260905230118 80 0 0.0 0.0 0.00 0.18 0.18 73 1013.2
20260905224610 81 0 0.0 1.7 0.00 0.18 0.18 70 1013.3
20260905223127 82 0 0.0 0.0 0.00 0.18 0.18 71 1013.2
20260905221625 80 0 0.0 3.5 0.00 0.18 0.18 71 1013.2
20260905220105 81 218 1.7 4.3 0.00 0.18 0.18 69 1013.2
20260905214604 81 246 1.7 5.2 0.00 0.18 0.18 71 1013.0
20260905213111 82 264 1.7 5.2 0.00 0.18 0.18 68 1012.9
20260905211624 82 273 1.7 6.1 0.00 0.18 0.18 67 1012.9
20260905210118 82 306 1.7 6.1 0.00 0.18 0.18 67 1012.8
20260905204606 82 314 3.5 7.0 0.00 0.18 0.18 66 1012.7
20260905203104 82 266 1.7 5.2 0.00 0.18 0.18 67 1012.6
20260905201610 82 325 2.6 8.7 0.00 0.18 0.18 68 1012.8
20260905200147 81 0 1.7 5.2 0.00 0.18 0.18 68 1013.0
20260905194621 82 186 3.5 6.1 0.00 0.38 0.18 67 1013.3
20260905193106 82 345 2.6 4.3 0.00 0.38 0.18 67 1013.4
20260905191603 81 0 0.9 2.6 0.00 0.38 0.18 66 1013.6
20260905190107 81 200 1.7 3.5 0.00 0.38 0.18 68 1013.7
20260905184612 81 0 0.0 5.2 0.00 0.38 0.18 71 1014.0
20260905183112 80 219 0.0 6.1 0.00 0.38 0.18 73 1014.1
20260905181604 79 115 2.6 6.1 0.00 0.38 0.18 72 1013.9
20260905174607 79 253 1.7 3.5 0.00 0.38 0.18 77 1014.4
20260905173105 78 263 0.9 2.6 0.00 0.38 0.18 77 1014.9
20260905171607 78 193 1.7 5.2 0.00 0.38 0.18 79 1015.0
20260905170101 77 0 0.0 2.6 0.00 0.38 0.18 79 1015.2
20260905164605 77 325 0.9 2.6 0.00 0.38 0.18 81 1015.3
20260905163104 76 215 0.0 3.5 0.00 0.38 0.18 83 1015.6
20260905161611 74 271 0.9 6.1 0.00 0.38 0.18 86 1015.8
20260905154604 73 271 2.6 8.7 0.00 0.38 0.18 89 1015.6
20260905153102 74 271 3.5 7.0 0.00 0.38 0.18 90 1015.5
20260905151603 71 323 0.9 2.6 0.01 0.38 0.18 95 1014.8
20260905150105 69 117 1.7 5.2 0.02 0.38 0.18 95 1014.2
20260905144602 69 98 4.3 8.7 0.03 0.38 0.18 96 1013.9
20260905143105 68 103 5.2 7.8 0.03 0.38 0.18 96 1014.3
20260905141602 68 89 1.7 3.5 0.02 0.37 0.17 96 1015.0
20260905140106 68 100 1.7 3.5 0.04 0.36 0.16 96 1015.5
20260905134615 68 96 1.7 3.5 0.05 0.35 0.15 96 1015.6
20260905133100 68 86 0.9 5.2 0.08 0.35 0.15 96 1015.8
20260905131608 68 94 3.5 5.2 0.11 0.35 0.15 95 1016.2
20260905130105 68 90 0.0 2.6 0.12 0.32 0.12 94 1016.4
20260905124607 68 117 0.0 4.3 0.10 0.30 0.10 92 1016.5